Showing default

ION SCV-013, 58300

Orbit data source: Space-Track

ION SCV-013, 58300 is a payload satellite owned by D-ORBIT (IT) in SSO that was launched on Sat, 11 Nov 2023 UTC via an FALCON 9 launch vehicle from the Air Force Western Test Range (AFWTR). Payload-class satellites include a variety of spacecraft equipped with specific instruments for various scientific and technological missions. These include communications satellites like Starlink; space stations such as the ISS; scientific satellites like the Hubble; Earth observation satellites from companies like Planet Labs, Umbra, and HawkEye 360; GPS; miniature CubeSats for education and research; and military/defense satellites.

Loading next visibility...
Identifier
58300, 2023-174AW
Orbit
SSO
Last TLE update
9 hours ago
Origin
Manufacturer
D-ORBIT
Mission
Operational Commercial Technology
Bus & Motor
ION-SC, PM200
Mass
220 kg wet, 150 kg dry
Launch date (UTC)
2023-11-11 (2 years ago)
Launch vehicle
FALCON 9
Launch site
Air Force Western Test Range (AFWTR)
Object type
Payload
Rocket body
Debris
Shape & HBR
Box, 0.4 m
Radar Cross Section
0.240 m², Medium (>0.1 m² and < 1m²)

Expand to show TLE details & history

TLE from 9 hours ago
0 ION SCV-013
1 58300U 23174AW  25169.87159946  .00000332  00000-0  55194-4 0  9991
2 58300  97.6750 227.5967 0012621  98.7512 261.5129 14.75939917 87167
Epoch: 2025-06-18T20:55Z
TLE epoch observation values (Epoch: 2025-06-18T20:55:06.193Z)
Latitude
0.00005°
Longitude
6.47347°
Altitude
646.511 km
Speed
7.534 km/s
True Right ascension
15h 10m 23s
True Declination
0° 00' 00"
Sunlit
Object was in full shadow at epoch
Visualization orbit readout
Latitude
-56.86207°
Longitude
174.99008°
Altitude
670.995 km
Speed
7.517 km/s
Apparent Right ascension
03h 50m 38s
Apparent Declination
-50° 13' 56"
Sunlit
Object is in daylight
Visualization observer readout
Local Sidereal Time
16:57:56
Azimuth
136.721° SSE
Elevation
-74.329°
Doppler factor
1
Orbital elements
Apogee altitude
648.062 km
Perigee altitude
630.349 km
Semi-major axis
7,017.343 km
Eccentricity
0.00126
Inclination
97.675°
RAAN
227.5967°
Arg. of periapsis
98.7512°
True anomaly
Unknown
Mean anomaly
261.5129°
Eccentric anomaly
Unknown
Mean motion
3.69219 °/min
Orbital period
97.5 mins
BSTAR
0.000055194
Loading maneuver chart data...
Loading SW <> Apogee altitude chart data...
Loading historical data...
Loading historical data...
Loading historical data...
Loading historical data...
Loading historical data...
Loading historical data...
Loading historical data...

ION SCV-013 Visibility forecast

Observer location: undefined°, undefined°

Span
Click to sort rows by Start time (UTC) header in descending order
Start Az.
Max El. time (UTC)
Max El. Az.
Max El.
End time (UTC)
End Az.
6 mins2025-06-19 17:01:30.896Z357.414° N2025-06-19 17:04:30.896Z262.611° W39.578°2025-06-19 17:07:30.896Z210.147° SW
7 mins2025-06-20 03:57:30.896Z172.09° S2025-06-20 04:00:30.896Z210.5° SW43.855°2025-06-20 04:04:30.896Z344.453° N
|